Weather History for KMHE - February, 2013

Change the Weather History Date:

Monday, February 11, 2013

  Actual Average Record
Temperature  
Mean Temperature 21 °F 22 °F  
Max Temperature 26 °F 32 °F 63 °F (1987)
Min Temperature 15 °F 13 °F -39 °F (1899)
Degree Days  
Heating Degree Days 44 42  
Month to date heating degree days 409 481  
Since 1 July heating degree days 4690 4848  
Cooling Degree Days 0 0  
Month to date cooling degree days 0 0  
Year to date cooling degree days 0 0  
Moisture  
Dew Point 19 °F    
Average Humidity 83    
Maximum Humidity 88    
Minimum Humidity 77    
Precipitation  
Precipitation T in 0.01 in 0.70 in (1909)
Month to date precipitation 1.04 0.14  
Year to date precipitation 1.26 0.36  
Snow  
Snow 0.30 in - 10.00 in (1909)
Month to date snowfall 10.8  
Since 1 July snowfall 24.0  
Snow Depth 10.00 in    
Sea Level Pressure  
Sea Level Pressure 30.05 in    
Wind  
Wind Speed 15 mph (NW)    
Max Wind Speed 36 mph    
Max Gust Speed 86 mph    
Visibility 7 miles    
Events Snow    
T = Trace of Precipitation, MM = Missing Value Source: NWS Daily Summary

Daily Weather History Graph

Daily Weather History Graph

Search for Another Location

Airport or City:

Trip Planner

Search our weather history database for the weather conditions in past years. The results will help you decide how hot, cold, wet, or windy it might be!

Date:

Astronomy

Feb. 11, 2013 Rise Set
Actual Time 7:36 AM CST 5:57 PM CST
Civil Twilight 7:06 AM CST 6:26 PM CST
Nautical Twilight 6:32 AM CST 7:00 PM CST
Astronomical Twilight 5:59 AM CST 7:34 PM CST
Moon 7:56 AM CST (2/11) 8:01 PM CST (2/11)
Length of Visible Light 11h 20m
Length of Day
10h 21m
Waxing Crescent, 3% of the Moon is Illuminated
Feb 11
Waxing Crescent
Feb 17
First Quarter
Feb 25
Full
Mar 4
Last Quarter
Mar 11
New

Hourly Weather History & Observations

Time (CST) Temp. Windchill Dew Point Humidity Pressure Visibility Wind Dir Wind Speed Gust Speed Precip Events Conditions
12:53 AM 25.0 °F 7.8 °F 21.9 °F 88% 29.88 in 1.0 mi NW 31.1 mph 41.4 mph 0.00 in Snow Light Snow
1:53 AM 25.0 °F 8.6 °F 21.9 °F 88% 29.91 in 1.2 mi NW 27.6 mph 38.0 mph 0.00 in Snow Light Snow
2:16 AM 24.8 °F 8.1 °F 21.2 °F 86% 29.87 in 1.2 mi NW 28.8 mph 35.7 mph 0.00 in Snow Light Snow
2:28 AM 24.8 °F 8.7 °F 21.2 °F 86% 29.88 in 1.2 mi NW 26.5 mph 34.5 mph 0.00 in Snow Light Snow
2:36 AM 24.8 °F 8.4 °F 21.2 °F 86% 29.88 in 1.5 mi NW 27.6 mph 33.4 mph 0.00 in Snow Light Snow
2:53 AM 24.1 °F 8.7 °F 21.0 °F 88% 29.94 in 2.0 mi NW 23.0 mph 33.4 mph 0.00 in Snow Light Snow
3:39 AM 24.8 °F 9.0 °F 21.2 °F 86% 29.91 in 2.5 mi NW 25.3 mph 31.1 mph 0.00 in Snow Light Snow
3:42 AM 24.8 °F 9.6 °F 21.2 °F 86% 29.91 in 3.0 mi NW 23.0 mph 31.1 mph 0.00 in Snow Light Snow
3:53 AM 24.1 °F 8.7 °F 21.0 °F 88% 29.96 in 4.0 mi NW 23.0 mph 32.2 mph 0.00 in Snow Light Snow
4:53 AM 24.1 °F 8.3 °F 19.9 °F 84% 29.99 in 6.0 mi NW 24.2 mph - 0.00 in   Overcast
5:01 AM 24.8 °F 10.0 °F 19.4 °F 80% 29.95 in 7.0 mi NW 21.9 mph 31.1 mph N/A   Overcast
5:53 AM 23.0 °F 6.9 °F 18.0 °F 81% 30.04 in 8.0 mi NW 24.2 mph 32.2 mph N/A   Overcast
6:53 AM 23.0 °F 8.7 °F 18.0 °F 81% 30.06 in 10.0 mi NW 18.4 mph - N/A   Overcast
7:20 AM 23.0 °F 6.9 °F 17.6 °F 80% 30.01 in 9.0 mi NW 24.2 mph - N/A   Overcast
7:53 AM 23.0 °F 8.3 °F 18.0 °F 81% 30.08 in 10.0 mi NW 19.6 mph - N/A   Overcast
8:53 AM 23.0 °F 8.3 °F 19.0 °F 85% 30.10 in 9.0 mi NW 19.6 mph - N/A   Overcast
9:53 AM 24.1 °F 9.8 °F 19.0 °F 81% 30.13 in 6.0 mi NW 19.6 mph - N/A   Haze
10:53 AM 25.0 °F 11.7 °F 19.0 °F 78% 30.14 in 8.0 mi NW 17.3 mph - N/A   Overcast
11:53 AM 25.0 °F 11.3 °F 19.0 °F 78% 30.15 in 9.0 mi NW 18.4 mph - N/A   Overcast
12:53 PM 25.0 °F 11.7 °F 19.9 °F 81% 30.14 in 8.0 mi NW 17.3 mph - N/A   Overcast
1:53 PM 25.0 °F 12.6 °F 19.0 °F 78% 30.15 in 9.0 mi NW 15.0 mph - N/A   Overcast
2:53 PM 25.0 °F 13.6 °F 19.0 °F 78% 30.14 in 10.0 mi NW 12.7 mph - N/A   Overcast
3:53 PM 25.0 °F 16.3 °F 19.9 °F 81% 30.14 in 10.0 mi NNW 8.1 mph - N/A   Overcast
4:53 PM 25.0 °F 19.3 °F 19.9 °F 81% 30.14 in 10.0 mi NW 4.6 mph - N/A   Overcast
5:53 PM 24.1 °F - 19.9 °F 84% 30.14 in 10.0 mi Calm Calm - N/A   Overcast
6:53 PM 25.0 °F 17.1 °F 19.0 °F 78% 30.14 in 10.0 mi WSW 6.9 mph - N/A   Overcast
7:50 PM 23.0 °F 15.8 °F 17.6 °F 80% 30.08 in 10.0 mi WSW 5.8 mph - N/A   Partly Cloudy
7:53 PM 23.0 °F 15.8 °F 18.0 °F 81% 30.14 in 10.0 mi SW 5.8 mph - N/A   Partly Cloudy
8:53 PM 21.0 °F 12.4 °F 15.1 °F 78% 30.12 in 10.0 mi SW 6.9 mph - N/A   Clear
9:53 PM 19.0 °F 7.5 °F 14.0 °F 81% 30.13 in 10.0 mi West 10.4 mph 32.2 mph N/A   Clear
10:53 PM 17.1 °F 8.7 °F 12.9 °F 84% 30.13 in 10.0 mi SSW 5.8 mph - N/A   Clear
11:53 PM 18.0 °F 8.7 °F 14.0 °F 84% 30.11 in 10.0 mi South 6.9 mph - N/A   Clear